CAPE
68 0 0 0 0 0 0 0 0 0 0 0 0 0 0 0 0 0 52 539 644 1065 1407 1499 1479 1255 1318 1283 1036 865 656 399 238 120 33 1 26 2 29 1 0 1 3 5 2 0 0 1 2
100 0 0 0 0 0 0 0 0 0 0 0 0 0 0 9 132 224 402 928 1023 1310 1416 1419 1373 1324 1365 1252 1060 876 592 426 326 149 52 0 0 2 150 1 0 0 0 0 0 0 0 0 0
158 0 0 0 0 0 0 0 0 0 0 0 0 20 130 125 304 266 429 1219 1287 1295 1354 1373 1405 1425 1334 1165 981 793 545 676 281 53 0 0 0 0 276 2 0 0 0 0 0 0 0 0 0
5 11 0 0 0 0 0 0 0 0 0 0 0 33 313 173 237 412 1121 1361 1325 1262 1253 1452 1441 1410 1279 1065 853 857 684 222 53 0 0 2 0 0 335 32 0 0 0 0 0 0 0 0 0
13 0 0 0 0 0 0 0 0 0 0 0 0 12 285 308 290 926 1403 1310 1098 1183 1259 1477 1392 1338 1166 939 864 617 146 16 0 2 159 53 35 124 388 28 0 0 0 0 0 0 0 0 0
11 0 0 0 0 0 0 0 0 0 0 0 0 56 243 420 883 1188 1280 1183 1117 1098 1334 1436 1366 1231 1022 978 896 420 148 27 0 0 94 150 105 259 187 43 0 1 0 0 0 0 0 0 0
0 1 0 0 0 0 0 0 0 0 0 0 10 24 216 669 896 1089 1057 1051 1066 1173 1282 1346 1240 1023 951 981 627 270 48 18 9 259 177 58 257 117 112 56 43 41 30 0 0 0 0 0 0
1 0 0 0 0 0 1 0 0 0 0 0 4 29 28 642 920 924 983 940 1011 1148 1116 1118 1104 958 837 685 400 82 29 10 23 386 66 17 76 96 93 80 71 58 12 0 0 0 0 0 0
26 5 0 0 0 0 7 1 0 0 0 0 99 296 397 769 940 918 916 887 1021 1118 967 1035 971 885 724 497 245 56 27 3 1 122 75 36 23 40 71 56 56 41 23 7 2 2 0 0 0
25 0 0 0 0 1 1 1 0 0 0 0 3 286 634 1044 1075 977 904 839 846 765 733 725 920 787 657 537 227 54 27 12 4 6 37 53 37 34 34 21 16 20 12 7 5 6 2 0 0
1 0 0 0 0 6 0 0 0 0 0 0 0 0 140 1053 1122 1083 906 794 713 721 626 585 739 779 629 509 251 63 41 25 15 1 0 5 10 17 21 13 11 6 5 0 0 0 0 0 0
10 0 1 2 0 0 0 0 0 0 0 0 0 0 0 759 1028 1076 897 730 885 770 659 689 731 643 585 453 315 144 62 35 25 3 0 0 0 0 0 0 0 0 0 0 0 0 0 0 0
6 17 10 3 4 0 0 0 0 0 0 0 0 0 158 388 603 724 840 689 778 792 616 542 583 679 594 445 361 221 100 54 27 13 0 0 0 0 0 0 0 0 0 0 0 0 0 0 0
17 11 19 1 0 0 0 0 0 0 0 0 0 0 150 266 380 532 766 910 936 737 553 402 539 763 679 501 358 202 113 78 46 29 14 0 0 0 0 0 0 0 0 0 0 0 0 0 0
35 13 1 0 0 0 0 0 0 0 0 0 0 0 2 197 360 568 567 721 891 712 557 396 352 470 649 557 315 175 131 111 82 52 31 0 0 0 0 0 0 0 0 0 0 0 0 0 0
51 25 5 0 0 0 0 0 0 0 0 0 0 0 0 112 329 585 686 664 634 694 689 528 452 495 594 536 322 204 144 124 113 48 15 22 0 0 0 0 0 0 0 0 0 0 0 0 0
24 13 9 3 0 0 0 0 0 0 0 0 0 0 0 0 0 258 333 577 608 553 595 542 465 527 480 351 279 238 203 112 75 25 0 0 0 0 0 0 0 0 0 0 0 0 0 0 0
7 0 9 3 0 7 0 0 0 0 0 0 0 0 0 0 0 0 0 27 42 106 377 477 472 430 376 323 257 188 165 136 101 42 0 0 0 0 0 0 0 0 0 0 0 0 0 0 0
1 0 0 0 0 1 6 1 0 0 0 0 0 0 0 0 0 0 0 0 0 0 0 25 362 363 372 347 323 236 244 129 71 48 141 121 0 0 0 0 0 0 0 0 0 0 0 0 0
0 0 0 0 0 0 0 0 0 0 0 0 0 0 0 0 0 0 0 0 0 0 0 0 0 0 0 119 213 220 220 192 198 133 105 78 115 103 36 0 0 0 0 0 0 0 0 0 0
0 0 0 0 0 0 0 0 0 0 0 0 0 0 0 0 0 0 0 0 0 0 0 0 0 0 0 0 0 0 0 48 159 160 90 0 0 1 0 82 86 43 3 0 0 0 0 0 0
0 0 0 2 0 4 0 0 0 0 0 0 0 0 0 0 0 0 0 0 0 0 0 0 0 0 0 0 0 0 0 0 0 0 0 0 0 0 0 0 2 46 33 0 0 0 0 0 0
0 0 0 0 0 0 0 0 0 0 0 0 0 0 0 0 0 0 0 0 0 0 0 0 0 0 0 0 0 0 0 0 0 0 0 0 0 0 0 0 0 0 0 0 27 28 17 12 11
5 0 0 0 0 0 0 0 0 0 0 0 0 0 0 0 0 0 0 0 0 0 0 0 0 0 0 0 0 0 0 0 0 0 0 0 0 0 0 0 0 0 1 0 0 7 12 6 6
15 11 1 1 2 0 0 0 0 0 0 0 0 0 0 0 0 0 0 0 0 0 0 0 0 0 0 0 0 0 0 0 0 0 0 0 0 0 0 0 0 0 0 1 0 1 4 1 0
0 1 0 0 0 0 0 0 0 0 0 0 0 0 0 0 0 0 0 0 0 0 0 0 0 0 0 0 0 0 0 0 0 0 0 0 0 0 0 0 0 0 0 0 0 0 0 0 0
0 0 0 0 0 0 0 0 0 0 0 0 0 0 0 0 0 0 0 0 0 0 0 0 0 0 0 0 0 0 0 0 0 0 0 0 0 0 0 0 0 0 0 0 0 0 0 0 0
0 0 0 0 0 0 0 0 0 0 0 0 0 0 0 0 0 0 0 0 0 0 0 0 0 0 0 0 0 0 0 0 0 0 0 0 0 0 0 0 0 0 0 0 0 0 0 0 0
2 2 0 0 0 0 0 0 0 0 0 0 0 0 0 0 0 0 0 0 0 0 0 0 0 0 0 0 0 0 0 0 0 0 0 0 0 0 0 0 0 0 0 0 0 0 0 0 0
3 6 2 1 0 0 0 0 0 0 0 0 0 0 0 0 0 0 0 0 0 0 0 0 0 0 0 0 0 0 0 0 0 0 0 0 0 0 0 0 0 0 0 0 0 0 0 0 0
CIN
-183 0 0 0 0 0 0 0 0 0 0 0 0 0 0 0 0 0 -522 -309 -259 -169 -91 -60 -35 -29 -13 -7 -8 -11 -21 -39 -61 -123 -202 0 -159 0 -15 0 0 0 0 0 0 0 0 0 0
-167 0 0 0 0 0 0 0 0 0 0 0 0 -66 0 -62 -321 -399 -341 -217 -182 -127 -99 -79 -58 -41 -25 -22 -17 -23 -40 -50 -64 -100 -174 0 0 0 -46 0 0 0 0 0 0 0 0 0 0
-148 0 0 0 0 0 0 0 0 0 0 0 0 -200 -191 -185 -334 -381 -368 -181 -136 -121 -106 -85 -67 -46 -39 -41 -39 -50 -67 -56 -91 -176 0 0 0 0 -25 0 0 0 0 0 0 0 0 0 0
-131 -93 0 0 0 0 0 0 0 0 0 0 0 -113 -213 -347 -320 -334 -207 -156 -124 -111 -105 -70 -64 -52 -50 -63 -71 -57 -80 -134 -207 0 0 0 0 0 -32 -48 0 0 0 0 0 0 0 0 0
-135 0 0 0 0 0 0 0 0 0 0 0 0 -50 -147 -275 -343 -233 -138 -151 -160 -115 -95 -63 -62 -56 -64 -88 -83 -97 -172 -173 0 -39 -151 -156 -153 -101 -45 -63 0 0 0 0 0 0 0 0 0
-83 0 0 0 0 0 0 0 0 0 0 0 0 -114 -141 -267 -201 -147 -130 -151 -140 -141 -81 -65 -55 -60 -85 -86 -83 -131 -176 -223 0 0 -228 -143 -132 -87 -91 -133 0 -18 0 0 0 0 0 0 0
0 -15 0 0 0 0 0 0 0 0 0 0 -8 -44 -187 -170 -157 -131 -137 -129 -129 -99 -74 -74 -67 -77 -86 -80 -115 -170 -218 -273 -315 -138 -138 -180 -109 -116 -119 -161 -171 -169 -160 0 0 0 0 0 0
-72 0 0 0 0 0 -94 0 0 0 0 0 -153 -24 -67 -159 -126 -132 -107 -109 -105 -77 -72 -77 -78 -78 -93 -109 -156 -223 -264 -315 -291 -110 -179 -229 -142 -113 -134 -155 -160 -151 -202 0 0 0 0 0 0
-77 -16 0 0 0 0 -207 -46 0 0 0 0 -139 -140 -182 -150 -98 -92 -85 -82 -78 -64 -82 -71 -88 -80 -103 -132 -180 -250 -289 -315 -153 -174 -173 -219 -228 -168 -138 -178 -164 -162 -219 -280 -185 -99 0 0 0
-22 0 0 0 0 -75 -67 -52 0 0 0 0 -85 -119 -120 -97 -79 -72 -75 -83 -90 -107 -120 -128 -91 -102 -113 -127 -182 -253 -302 -338 -380 -372 -273 -219 -221 -229 -234 -280 -277 -275 -283 -331 -350 -344 -181 0 0
-10 0 0 0 0 -145 0 -8 0 0 0 0 0 0 -36 -32 -56 -37 -47 -69 -86 -90 -115 -141 -114 -93 -113 -124 -172 -231 -273 -298 -333 -133 0 -369 -340 -305 -279 -310 -311 -318 -327 0 0 0 0 0 0
-4 -13 -5 -64 0 -14 0 0 0 0 0 0 0 0 0 -23 -43 -45 -61 -79 -57 -77 -105 -106 -98 -108 -106 -130 -153 -192 -231 -262 -278 -104 0 0 0 0 0 0 0 0 0 0 0 0 0 0 0
-3 -11 -23 -75 -108 0 0 0 0 0 0 0 0 0 -85 -63 -44 -82 -85 -98 -82 -68 -109 -125 -112 -85 -91 -113 -129 -158 -191 -216 -241 -265 0 0 0 0 0 0 0 0 0 0 0 0 0 0 0
-6 -6 -20 -14 0 0 0 0 0 0 0 0 0 0 -91 -61 -57 -73 -87 -69 -71 -74 -99 -140 -107 -62 -66 -90 -107 -142 -169 -177 -206 -219 -238 0 0 0 0 0 0 0 0 0 0 0 0 0 0
-14 -14 -17 -3 0 0 0 0 0 0 0 0 0 0 -6 -57 -75 -76 -90 -81 -80 -95 -96 -134 -129 -111 -75 -74 -110 -139 -159 -172 -175 -166 -196 0 0 0 0 0 0 0 0 0 0 0 0 0 0
-6 -11 -2 -1 0 0 0 0 0 0 0 0 0 0 0 -83 -72 -88 -86 -96 -98 -82 -89 -98 -110 -109 -90 -86 -110 -129 -140 -146 -137 -159 -146 -185 0 0 0 0 0 0 0 0 0 0 0 0 0
-10 -7 -4 -1 0 0 0 0 0 0 0 0 0 0 0 0 0 -120 -141 -114 -103 -111 -84 -98 -117 -94 -93 -111 -120 -117 -116 -147 -161 -173 0 0 0 0 0 0 0 0 0 0 0 0 0 0 0
-1 -3 -3 -6 0 -8 0 0 0 0 0 0 0 0 0 0 0 0 0 -55 -54 -245 -153 -113 -108 -100 -102 -101 -116 -130 -125 -132 -139 -159 0 0 0 0 0 0 0 0 0 0 0 0 0 0 0
-7 -6 0 0 0 -6 -9 -5 0 0 0 0 0 0 0 0 0 0 0 0 0 0 0 -268 -103 -100 -86 -86 -84 -98 -95 -110 -123 -129 -97 -103 0 0 0 0 0 0 0 0 0 0 0 0 0
0 0 0 0 0 0 0 0 -6 0 0 0 0 0 0 0 0 0 0 0 0 0 0 0 0 0 0 -142 -103 -87 -79 -86 -86 -99 -103 -109 -86 -82 -105 0 0 0 0 0 0 0 0 0 0
0 0 0 0 0 0 0 0 0 0 0 0 0 0 0 0 0 0 0 0 0 0 0 0 0 0 0 0 0 0 0 -131 -78 -82 -91 0 0 -38 0 -68 -62 -55 -32 0 0 0 0 0 0
0 0 0 -10 0 -3 0 -1 0 0 0 0 0 0 0 0 0 0 0 0 0 0 0 0 0 0 0 0 0 0 0 0 0 0 0 0 0 0 0 0 -7 -50 -51 0 0 0 0 0 0
0 0 0 0 0 0 0 0 0 0 0 0 0 0 0 0 0 0 0 0 0 0 0 0 0 0 0 0 0 0 0 0 0 0 0 0 0 0 0 0 0 0 0 0 -46 -49 -53 -58 -26
-18 0 0 0 0 0 0 0 0 0 0 0 0 0 0 0 0 0 0 0 0 0 0 0 0 0 0 0 0 0 0 0 0 0 0 0 0 0 0 0 0 0 0 0 0 -31 -45 -31 -28
-5 -6 -3 -2 -4 0 0 0 0 0 0 0 0 0 0 0 0 0 0 0 0 0 0 0 0 0 0 0 0 0 0 0 0 0 0 0 0 0 0 0 0 0 0 0 0 -14 -32 -10 0
-1 -9 0 0 0 0 0 0 0 0 0 0 0 0 0 0 0 0 0 0 0 0 0 0 0 0 0 0 0 0 0 0 0 0 0 0 0 0 0 0 0 0 0 0 0 0 0 0 0
0 0 0 0 0 0 0 0 0 0 0 0 0 0 0 0 0 0 0 0 0 0 0 0 0 0 0 0 0 0 0 0 0 0 0 0 0 0 0 0 0 0 0 0 0 0 0 0 0
0 0 0 -1 0 0 0 0 0 0 0 0 0 0 0 0 0 0 0 0 0 0 0 0 0 0 0 0 0 0 0 0 0 0 0 0 0 0 0 0 0 0 0 0 0 0 0 0 0
-3 -3 0 0 0 0 0 0 0 0 0 0 0 0 0 0 0 0 0 0 0 0 0 0 0 0 0 0 0 0 0 0 0 0 0 0 0 0 0 0 0 0 0 0 0 0 0 0 0
-8 -6 -5 0 0 0 0 0 0 0 0 0 0 0 0 0 0 0 0 0 0 0 0 0 0 0 0 0 0 0 0 0 0 0 0 0 0 0 0 0 0 0 0 0 0 0 0 0 0
Wind_Speed
22 21 19 19 26 26 31 29 26 26 24 23 20 20 19 18 17 17 11 6 6 12 11 12 14 15 16 15 15 16 17 17 18 19 20 20 21 22 22 23 24 23 22 21 20 19 19 19 20
20 20 18 20 30 34 32 27 26 25 25 20 18 18 19 20 18 13 3 4 9 8 9 10 13 14 15 15 16 17 18 19 19 19 19 20 21 21 21 22 23 23 23 22 20 20 20 20 20
20 17 22 26 32 37 31 26 24 24 26 21 21 18 19 19 17 8 11 5 8 7 7 10 12 12 13 14 17 18 19 19 19 20 20 20 21 20 20 21 22 23 23 22 21 21 21 20 20
20 19 21 32 37 33 27 23 23 23 20 21 21 20 17 16 9 10 2 6 6 5 6 9 9 10 12 14 15 16 17 17 18 19 20 20 20 20 20 20 21 22 22 22 22 21 21 20 20
22 25 34 38 39 33 28 24 23 23 24 24 21 22 19 16 11 3 3 6 6 4 3 3 7 9 11 12 13 14 15 16 17 18 19 19 19 19 20 20 20 21 22 22 21 20 20 20 21
27 29 39 51 42 34 28 24 23 23 24 23 22 21 19 15 8 5 4 5 4 5 3 2 4 5 7 10 12 13 14 15 15 17 17 18 18 19 19 19 19 20 21 21 20 20 20 20 20
30 33 41 43 44 37 31 25 23 23 25 21 19 23 21 17 11 6 5 4 4 4 4 3 2 1 4 7 9 10 11 13 14 15 16 17 17 17 18 18 18 18 19 19 19 19 18 18 19
28 31 38 40 43 41 28 23 23 22 23 23 19 24 22 18 11 7 6 5 5 6 5 5 3 2 1 4 6 7 9 11 11 13 14 14 15 15 16 16 16 16 16 17 17 17 17 18 18
26 33 42 39 40 38 26 27 24 23 24 24 22 22 22 11 11 10 10 9 7 8 7 6 5 3 1 1 4 5 7 9 9 10 11 11 12 13 13 13 14 14 14 14 15 15 15 15 16
29 39 35 31 32 30 29 27 25 25 26 20 20 20 15 11 12 12 12 12 11 10 10 10 7 5 3 1 1 3 5 7 8 8 9 9 10 11 11 11 11 12 12 12 12 13 13 14 14
30 38 27 25 26 28 31 28 24 26 25 21 26 28 24 19 15 14 13 12 12 12 12 12 10 7 4 2 0 3 5 6 7 7 8 9 9 10 9 9 9 10 10 11 12 13 13 12 12
30 31 27 23 25 29 35 32 32 29 28 27 29 31 28 24 18 17 15 13 12 10 10 10 9 6 5 4 2 3 5 6 7 7 7 8 8 8 7 7 8 8 9 9 11 12 12 12 11
28 25 25 25 27 28 31 37 38 39 31 28 29 25 26 26 20 19 18 16 13 12 10 9 6 6 6 5 5 5 5 5 6 7 6 7 8 8 7 6 7 7 9 9 11 11 11 11 12
26 22 20 21 24 28 35 39 36 44 29 32 30 28 28 27 22 20 19 18 16 15 13 10 7 7 6 5 5 5 7 8 8 7 5 6 7 7 7 7 7 7 8 10 11 10 11 12 13
19 21 19 24 30 31 25 41 49 45 37 37 34 30 29 28 23 22 19 20 19 17 15 13 12 10 8 7 9 10 10 10 9 9 8 7 7 7 7 8 8 7 8 10 11 11 12 13 13
21 20 25 20 21 25 25 41 48 43 37 39 35 34 30 27 26 22 22 21 21 20 19 17 15 13 12 12 13 13 13 13 13 13 13 11 9 7 7 8 9 9 10 10 11 13 14 15 15
26 27 25 21 27 26 29 32 33 36 40 41 38 33 32 27 25 22 21 22 22 22 21 19 18 18 16 16 16 16 18 18 17 17 16 14 11 10 10 10 11 12 12 12 13 15 16 18 18
27 23 22 22 34 32 33 31 27 32 39 43 39 33 32 30 27 24 23 20 20 22 23 23 20 19 19 20 21 22 22 22 20 19 18 16 14 13 12 14 14 14 15 16 17 18 19 21 23
23 19 20 22 25 35 35 31 29 31 32 44 43 38 35 32 28 26 25 23 20 20 21 23 22 21 20 21 22 23 23 23 23 21 21 20 19 17 17 17 18 17 18 19 20 22 23 24 23
24 21 19 19 22 29 33 35 39 33 33 32 40 42 39 36 31 29 26 24 24 23 21 20 21 22 23 24 24 24 25 25 25 25 25 24 24 22 21 20 20 20 22 23 23 23 26 25 23
23 23 20 19 21 25 27 38 41 41 38 38 37 39 36 35 36 32 29 26 23 23 22 22 22 22 23 24 25 26 27 28 28 27 27 27 26 25 24 23 23 24 24 25 25 24 23 26 25
22 20 18 20 19 36 29 39 38 41 44 41 45 45 45 38 31 30 29 26 24 23 21 21 21 22 24 25 26 27 29 30 28 28 27 27 27 27 27 27 25 25 25 25 24 23 22 22 23
23 19 16 16 17 27 33 38 36 33 43 50 47 43 43 38 32 27 25 23 21 20 20 19 19 21 23 24 26 27 30 29 29 28 28 26 26 27 28 27 27 26 25 24 22 22 21 20 21
17 16 15 16 18 30 32 38 36 39 38 36 34 38 42 39 33 26 21 18 17 18 18 19 20 21 22 23 24 25 26 27 27 27 28 28 27 27 28 27 27 26 25 23 21 20 20 20 20
18 18 19 23 26 30 21 32 35 20 23 24 28 31 33 36 33 26 23 20 19 18 19 20 22 23 23 22 22 22 22 22 23 24 24 25 25 25 27 26 26 25 24 23 22 21 20 19 20
19 21 20 26 28 27 21 33 26 21 25 32 33 28 26 26 26 23 22 21 20 20 20 20 21 23 23 23 23 22 22 22 23 23 23 24 25 25 26 26 25 24 24 23 22 20 20 21 21
19 26 19 22 22 26 26 30 33 33 31 28 31 31 30 24 20 21 21 21 20 20 20 20 21 21 22 22 22 23 23 23 24 23 23 24 25 25 26 25 25 25 25 24 23 22 22 21 22
18 13 23 24 28 34 31 31 29 28 29 28 28 27 25 19 19 20 19 19 20 20 20 20 19 19 20 20 21 21 22 22 23 24 25 25 25 25 25 25 25 24 24 23 22 21 21 21 22
20 22 22 20 24 26 30 28 22 19 22 31 29 22 16 15 14 16 18 17 17 18 19 19 19 19 20 21 21 22 22 22 23 24 25 25 25 24 24 24 23 23 22 21 20 19 19 19 19
24 26 22 26 26 28 32 38 24 25 29 30 26 18 15 13 13 12 14 17 18 18 18 19 20 20 21 21 21 22 22 22 23 23 24 24 24 23 23 22 22 21 21 20 18 17 18 17 18
Wind_Direction
268 273 270 264 246 249 244 246 252 252 254 260 263 259 262 265 256 265 278 271 110 110 102 97 95 89 82 74 67 65 60 57 58 59 55 57 62 64 67 57 53 51 51 50 47 43 42 46 47
268 272 266 256 243 240 243 247 249 255 260 261 259 258 260 261 262 271 203 280 116 110 102 96 98 90 82 74 71 69 66 65 63 55 53 59 67 68 70 60 55 51 49 47 45 45 47 48 45
265 270 252 245 242 238 242 245 254 262 261 249 257 261 260 260 264 233 270 128 119 108 104 100 99 90 81 76 75 73 69 66 58 56 55 62 69 67 67 62 56 51 49 47 49 50 52 48 44
254 257 258 243 239 242 245 246 260 264 260 254 259 254 265 275 253 261 158 135 137 116 112 105 99 92 84 79 75 71 65 54 54 53 59 64 63 64 65 64 58 53 50 50 50 53 51 47 40
249 254 245 241 240 244 249 256 260 260 258 257 253 252 255 265 274 221 162 148 150 150 153 124 106 95 87 81 74 71 64 59 56 56 60 57 62 63 68 66 61 56 50 50 50 53 52 46 39
243 250 240 236 238 242 249 257 259 262 258 258 252 252 256 266 269 234 191 176 192 165 188 176 120 96 83 79 78 75 66 55 53 65 68 61 67 63 66 66 63 55 50 47 50 52 55 50 42
235 242 241 239 237 241 243 259 254 260 257 256 259 249 258 254 258 235 219 206 207 207 194 213 210 121 85 78 79 68 55 46 53 57 68 56 54 59 62 64 59 53 50 48 48 51 50 47 42
242 244 242 240 235 237 245 256 255 262 252 267 259 254 254 248 240 235 234 224 217 226 225 225 205 232 84 75 75 55 40 38 50 54 62 62 59 64 66 63 58 53 51 51 53 48 45 38 32
242 241 238 239 235 236 244 247 258 264 260 260 261 264 264 226 229 232 234 239 232 236 241 235 232 230 209 71 64 47 33 33 43 42 45 44 44 46 48 50 46 48 46 47 46 45 40 33 30
237 238 242 246 241 240 239 245 257 254 259 256 262 271 255 224 225 231 233 235 237 240 246 248 244 235 231 280 48 26 16 17 17 25 28 20 22 27 33 36 40 41 41 38 40 33 27 21 21
240 239 244 250 243 243 236 246 257 253 246 256 261 262 255 242 232 233 237 239 238 245 252 254 253 245 231 258 292 333 341 349 355 4 11 11 10 13 20 25 27 29 28 27 24 18 16 15 15
242 244 244 251 250 245 241 247 250 251 249 265 267 263 249 246 239 239 240 241 243 247 256 259 251 237 234 271 274 313 324 329 335 347 351 359 2 9 20 25 25 29 21 23 17 10 9 7 7
244 245 246 252 251 250 250 244 246 248 257 269 271 264 249 248 249 246 245 248 248 254 261 261 245 242 254 269 288 305 317 326 332 334 342 347 351 1 10 14 14 18 16 13 8 5 4 1 357
242 247 243 245 249 254 249 246 248 242 262 265 268 261 255 250 250 250 247 246 248 256 260 262 256 257 261 271 290 301 309 317 324 331 340 342 344 351 358 359 358 3 8 5 2 2 359 354 351
239 242 249 250 249 249 258 246 238 243 257 258 261 261 257 252 252 250 249 248 249 254 260 262 264 267 268 274 289 296 302 311 320 324 325 329 330 334 340 343 346 351 349 352 353 353 349 346 345
240 244 244 250 238 245 246 246 239 246 254 253 257 257 258 254 254 254 254 254 253 257 259 263 267 269 272 278 284 290 296 301 307 312 313 315 319 323 325 327 328 334 336 337 338 340 338 336 334
241 242 245 248 237 242 242 250 246 245 250 249 253 256 257 255 256 257 258 258 257 258 262 265 268 271 274 280 284 287 290 294 299 304 308 309 309 310 311 314 318 322 324 324 324 325 326 326 326
233 245 248 255 239 241 245 251 247 239 244 243 250 255 256 253 253 259 258 260 262 263 263 266 271 275 277 280 285 288 290 291 295 299 303 305 305 304 305 309 312 314 316 317 318 315 318 318 320
238 249 253 259 254 239 244 248 244 240 245 243 245 247 253 254 259 262 260 261 264 268 267 268 271 275 278 282 285 287 289 292 294 296 300 303 305 304 303 305 308 310 309 311 313 314 312 313 316
238 247 260 267 258 244 245 246 242 244 249 245 245 246 256 258 258 259 260 262 265 267 272 274 275 277 278 281 285 289 292 293 294 296 297 298 300 303 304 304 305 307 308 309 310 310 313 313 315
244 246 254 268 264 256 253 250 245 247 250 246 250 253 257 259 255 258 259 262 266 267 270 274 277 280 282 284 286 287 289 291 293 296 298 301 302 302 302 302 303 304 305 306 308 310 310 311 316
242 252 259 264 274 247 254 250 249 248 245 249 248 249 249 256 263 260 261 263 265 270 275 277 281 284 287 288 288 289 290 291 296 298 300 302 305 305 305 305 305 304 305 306 310 314 315 317 316
246 256 264 272 278 266 254 251 254 256 246 240 245 251 252 256 259 260 260 262 265 269 274 282 287 290 293 294 294 293 292 294 297 299 300 303 307 310 311 311 308 306 306 308 310 314 316 318 319
253 257 268 278 277 263 258 251 260 254 258 264 265 262 255 253 255 258 259 263 267 273 277 282 287 293 297 299 299 299 298 298 298 299 299 301 303 308 313 314 313 313 311 310 311 314 316 318 319
252 253 262 263 262 262 278 254 258 279 279 280 273 270 264 256 253 250 251 255 264 272 278 283 287 290 295 299 301 303 304 305 305 306 307 307 308 311 313 315 317 318 319 320 317 315 316 319 320
250 252 263 261 262 270 279 255 270 288 281 269 270 277 276 267 255 246 247 253 262 271 279 286 288 289 292 295 298 303 304 305 306 308 309 311 310 311 312 314 317 320 322 322 322 322 322 323 323
258 253 268 273 281 276 275 273 276 274 281 287 280 278 277 268 254 245 248 255 264 271 279 285 289 291 292 295 297 300 303 304 305 309 311 311 311 312 314 316 317 318 318 319 320 320 320 322 322
270 263 262 264 270 266 272 276 277 291 293 299 295 289 280 274 258 248 250 256 265 272 279 285 288 290 294 297 299 301 304 306 308 309 308 310 313 315 316 318 318 319 320 320 320 320 322 322 324
263 265 269 272 270 275 278 282 295 300 306 306 304 299 282 266 252 247 251 260 268 275 279 283 288 289 293 296 299 301 303 306 308 309 310 312 316 319 321 321 322 322 322 324 325 327 329 330 332
265 265 265 265 270 274 277 274 291 292 304 311 309 300 288 261 250 251 257 264 270 275 282 286 287 289 292 295 298 301 304 306 308 310 312 317 318 323 321 323 324 325 327 329 331 333 335 339 340